Starlink 11119

operational
NORAD ID: 60121 Int'l Des: 2024-118 Owner: SPXS Country: US Constellation: starlink
LEOCIRCULAR

关于 Starlink 11119

正在加载描述...

实时位置

正在加载3D地球...

即将过境

高度历史

Altitude vs Time

uPlot chart will show altitude changes over time

两行轨道根数

1 60121U 24118J 25259.27970519 .00002900 00000-0 28812-4 0 9995
2 60121 53.1584 0.7893 0000953 87.1197 272.9930 15.69685835 70606
Epoch: Sep 16, 2025 • Age: 13 hours

当前状态

高度 363.2 km
速度 7.70 km/s
星下点 41.61°N, 151.21°W
发射日期 Jun 24, 2024
运行时间 1.2 years
类型 internet

技术详情

分类 Payload
质量 960.00 kg
干质量 910.00 kg
总质量 960.00 kg
长度 0.30 m
直径 4.10 m
跨度 29.00 m
形状 Box + pan
制造商 SPXS
平台类型 Starlink V2MD
阶段状态 In Orbit
所有者/国家 SPXS/US

大型星座

Loading constellations...